Date,TemperatureHighF,TemperatureAvgF,TemperatureLowF,DewpointHighF,DewpointAvgF,DewpointLowF,HumidityHigh,HumidityAvg,HumidityLow,PressureMaxIn,PressureMinIn,WindSpeedMaxMPH,WindSpeedAvgMPH,GustSpeedMaxMPH,PrecipitationSumIn
2013-1-1,26,17,4,26,11,-1,99,78,56,29.87,29.62,7,2,16,0.05
2013-1-2,17,4,-10,10,-2,-16,86,76,65,30.14,29.81,6,2,11,0.01
2013-1-3,17,0,-12,2,-8,-19,83,70,49,30.15,29.88,6,1,7,0.00
2013-1-4,29,19,4,26,16,-1,96,86,76,29.87,29.70,10,2,24,0.02
2013-1-5,27,21,9,26,16,6,100,82,61,30.20,29.73,6,2,13,0.05
2013-1-6,27,20,11,26,18,8,100,91,80,30.15,29.87,2,0,6,0.02
2013-1-7,28,19,8,28,15,5,100,84,58,30.32,29.91,7,1,9,0.01
2013-1-8,40,21,8,28,16,5,95,84,60,30.34,30.14,6,2,9,0.00
2013-1-9,33,24,16,30,22,14,97,91,81,30.35,29.90,8,1,19,0.00
2013-1-10,35,31,24,32,27,21,100,85,75,30.52,29.95,5,2,13,0.04
2013-1-11,33,26,17,32,23,15,100,87,73,30.51,30.13,5,1,10,0.09
2013-1-12,40,34,32,39,34,32,100,99,92,30.17,30.09,4,1,6,0.00
2013-1-13,38,34,31,38,34,31,100,100,99,30.14,29.93,5,1,7,0.00
2013-1-14,45,37,30,43,34,26,100,91,69,30.25,29.82,5,1,12,0.00
2013-1-15,32,28,24,26,22,20,85,77,66,30.30,30.21,3,1,7,0.00
2013-1-16,27,26,24,27,24,21,100,93,85,30.22,29.76,2,0,7,0.19
2013-1-17,31,21,8,29,13,-8,98,72,40,30.11,29.76,9,2,15,0.02
2013-1-18,18,7,-5,1,-7,-14,68,53,33,30.28,30.07,7,2,13,0.00
2013-1-19,36,23,8,28,18,0,93,82,68,30.20,29.77,9,2,18,0.09
2013-1-20,41,32,13,34,23,6,90,71,54,29.87,29.44,14,5,28,0.00
2013-1-21,23,12,-1,10,3,-6,85,68,43,29.99,29.75,5,1,10,0.00
2013-1-22,20,9,-3,11,1,-14,85,72,56,29.98,29.73,5,1,10,0.05
2013-1-23,4,-6,-13,-11,-19,-22,70,55,33,30.06,29.97,4,1,11,0.00
2013-1-24,10,-4,-16,-9,-16,-24,70,57,37,30.23,30.01,6,2,15,0.00
2013-1-25,15,4,-6,-2,-7,-14,72,60,40,30.25,30.03,4,1,8,0.00
2013-1-26,19,7,-1,1,-4,-7,78,61,38,30.19,30.00,5,1,10,0.00
2013-1-27,20,7,-2,2,-3,-8,81,64,42,30.43,30.19,7,2,9,0.00
2013-1-28,15,8,0,12,2,-8,90,76,56,30.41,30.01,4,0,5,0.00
2013-1-29,30,20,8,26,17,5,100,87,75,30.16,30.02,4,0,7,0.00
2013-1-30,53,42,27,52,41,26,100,99,89,30.04,29.41,13,4,29,0.00
2013-1-31,52,38,21,52,34,8,100,84,56,29.47,28.88,14,5,30,0.36
2013-2-1,21,16,11,12,7,0,85,66,57,30.03,29.48,5,2,13,0.00
2013-2-2,21,14,5,13,6,-1,88,73,55,30.11,30.00,6,1,16,0.00
2013-2-3,28,17,7,17,11,3,88,76,55,30.00,29.69,5,0,8,0.02
2013-2-4,24,16,6,13,7,-4,87,69,46,29.87,29.66,6,1,17,0.00
2013-2-5,23,12,0,6,-1,-8,70,57,33,29.98,29.86,6,1,12,0.00
2013-2-6,31,18,8,23,9,-8,84,67,46,30.29,29.86,4,1,17,0.00
2013-2-7,16,9,2,-3,-8,-12,65,47,30,30.48,30.30,4,0,7,0.00
2013-2-8,24,17,11,20,12,-3,92,81,52,30.41,29.88,7,1,19,0.00
2013-2-9,13,9,1,10,4,-4,92,82,71,30.25,29.84,8,3,21,0.00
2013-2-10,31,11,-4,13,2,-9,87,71,38,30.39,30.25,8,2,9,0.50
2013-2-11,34,23,9,32,21,6,100,90,56,30.28,29.59,16,2,29,0.00
2013-2-12,36,32,29,33,30,27,100,94,87,29.82,29.59,7,2,18,0.04
2013-2-13,37,30,25,28,25,22,93,83,67,29.84,29.76,5,0,8,0.03
2013-2-14,35,27,21,24,22,17,92,80,58,29.97,29.73,6,1,8,0.01
2013-2-15,44,31,22,31,25,19,92,78,60,29.96,29.87,8,2,21,0.01
2013-2-16,34,26,18,25,18,5,94,72,54,29.96,29.85,3,0,9,0.04
2013-2-17,18,12,7,9,4,-1,82,68,55,29.84,29.55,7,2,13,0.00
2013-2-18,26,12,2,6,-2,-6,75,56,33,30.11,29.73,6,2,16,0.01
2013-2-19,40,25,6,33,13,-4,95,64,28,30.13,29.58,14,3,30,0.00
2013-2-20,33,25,20,32,23,18,100,91,79,29.70,29.54,1,0,10,0.00
2013-2-21,22,16,10,18,11,5,94,81,58,30.26,29.70,0,0,6,0.08
2013-2-22,37,25,14,27,20,12,94,84,60,30.40,30.26,4,0,8,0.28
2013-2-23,35,30,25,30,26,21,100,87,77,30.27,29.93,9,3,19,0.00
2013-2-24,35,31,29,33,30,29,100,98,92,29.94,29.78,0,0,4,0.18
2013-2-25,36,31,29,33,30,28,100,96,83,30.23,29.92,0,0,0,0.14
2013-2-26,40,32,28,34,30,26,98,89,78,30.32,30.18,4,0,12,0.04
2013-2-27,36,32,28,31,28,24,95,86,79,30.17,29.67,7,2,27,0.02
2013-2-28,47,36,29,36,31,26,99,85,63,29.66,29.58,4,1,11,0.15
2013-3-1,33,30,28,32,28,27,99,93,88,29.74,29.59,2,0,9,0.04
2013-3-2,36,28,24,30,26,23,98,93,75,29.75,29.69,3,0,8,0.10
2013-3-3,32,26,23,28,24,22,97,92,83,29.72,29.63,0,0,4,0.01
2013-3-4,30,24,21,24,21,19,93,88,77,29.85,29.66,2,0,7,0.07
2013-3-5,39,29,21,32,26,19,97,87,70,30.10,29.86,4,0,11,0.16
2013-3-6,38,31,27,30,28,23,99,87,62,30.22,30.10,6,1,19,0.05
2013-3-7,35,29,25,26,24,22,89,81,69,30.20,30.11,7,2,15,0.01
2013-3-8,39,30,25,28,23,21,87,76,59,30.29,30.10,7,2,10,0.00
2013-3-9,50,33,19,28,22,16,92,70,30,30.35,30.26,6,2,11,0.00
2013-3-10,53,37,23,33,26,20,88,66,36,30.37,30.20,9,2,15,0.00
2013-3-11,46,40,33,35,32,29,89,72,55,30.24,30.05,14,2,24,0.00
2013-3-12,48,44,39,48,42,31,100,92,66,30.07,29.73,13,7,27,0.28
2013-3-13,39,35,27,39,33,26,100,92,73,29.84,29.76,2,0,8,0.04
2013-3-14,31,24,13,26,18,5,99,78,58,29.86,29.71,5,1,15,0.04
2013-3-15,34,22,11,24,13,4,92,71,40,29.86,29.61,7,1,15,0.00
2013-3-16,31,22,14,21,14,9,94,73,50,29.90,29.69,4,0,8,0.08
2013-3-17,27,16,8,12,6,0,85,66,44,30.32,29.90,5,1,12,0.00
2013-3-18,34,20,5,17,5,-2,76,55,27,30.41,30.16,6,1,8,0.00
2013-3-19,31,26,20,25,21,14,97,83,61,30.16,29.74,12,2,28,0.01
2013-3-20,34,25,19,26,22,16,95,86,63,29.74,29.65,5,0,14,0.21
2013-3-21,41,27,18,22,17,14,84,67,38,29.75,29.63,7,2,19,0.17
2013-3-22,35,26,15,24,18,11,90,73,51,29.73,29.64,5,1,8,0.00
2013-3-23,33,28,23,25,23,19,91,82,64,29.79,29.62,5,2,17,0.02
2013-3-24,36,30,26,26,25,22,92,80,62,29.87,29.78,4,0,8,0.00
2013-3-25,44,32,20,30,24,18,96,75,51,29.83,29.61,7,1,14,0.00
2013-3-26,44,35,28,29,24,21,85,68,44,29.83,29.64,7,1,14,0.00
2013-3-27,41,34,27,33,28,22,96,81,63,29.95,29.80,6,1,14,0.01
2013-3-28,42,36,32,38,34,32,100,90,70,30.07,29.94,5,0,9,0.09
2013-3-29,44,38,34,37,34,31,96,84,66,30.09,30.03,4,0,7,0.00
2013-3-30,48,37,29,32,26,17,97,68,33,30.13,30.07,6,2,14,0.00
2013-3-31,51,38,25,36,24,19,89,60,37,30.13,29.82,12,4,25,0.00
2013-4-1,48,37,26,43,34,18,100,91,70,29.80,29.55,6,1,20,0.30
2013-4-2,35,26,19,23,18,14,93,75,49,29.86,29.75,7,1,18,0.14
2013-4-3,40,28,20,22,17,12,93,65,34,30.16,29.85,6,2,18,0.05
2013-4-4,49,35,23,24,18,11,72,51,33,30.25,29.97,7,3,21,0.00
2013-4-5,48,38,28,31,25,19,79,60,44,29.96,29.80,7,2,18,0.00
2013-4-6,36,27,18,21,12,3,91,54,33,30.32,29.93,9,2,17,0.00
2013-4-7,50,38,25,38,23,10,73,55,37,30.31,29.91,15,6,28,0.00
2013-4-8,52,43,36,38,34,32,87,73,49,30.17,29.93,8,1,18,0.00
2013-4-9,46,42,36,43,40,31,100,93,68,30.10,29.90,13,3,25,0.10
2013-4-10,47,39,36,44,39,36,100,99,90,30.05,29.97,4,1,7,0.18
2013-4-11,43,37,31,38,26,17,100,69,40,30.21,29.95,5,2,10,0.01
2013-4-12,32,31,29,31,27,20,100,86,61,30.22,29.89,13,1,29,0.16
2013-4-13,44,36,31,40,35,31,100,95,80,29.95,29.84,4,0,8,0.34
2013-4-14,42,36,31,40,35,30,100,94,88,30.18,29.92,6,2,9,0.12
2013-4-15,57,42,27,41,33,26,100,75,45,30.33,30.18,12,4,23,0.04
2013-4-16,55,50,39,53,45,35,100,85,66,30.28,29.93,14,7,31,0.15
2013-4-17,54,44,34,48,35,29,99,72,45,30.34,30.04,6,2,15,0.01
2013-4-18,54,42,30,44,33,26,88,71,50,30.38,29.98,17,4,38,0.01
2013-4-19,71,62,52,62,56,44,99,81,65,29.99,29.52,15,9,38,0.17
2013-4-20,57,45,34,56,37,23,100,76,49,30.18,29.65,7,2,20,0.29
2013-4-21,47,35,27,27,22,17,80,60,36,30.64,30.18,6,2,12,0.00
2013-4-22,56,39,25,27,21,16,80,52,27,30.70,30.54,9,2,21,0.00
2013-4-23,52,38,25,41,30,18,92,71,48,30.55,30.15,7,1,10,0.00
2013-4-24,73,57,33,51,43,31,99,63,33,30.14,29.69,9,3,20,0.00
2013-4-25,61,49,35,51,36,27,78,61,40,30.29,29.68,11,3,29,0.00
2013-4-26,55,42,29,38,31,24,86,68,40,30.42,30.28,11,1,14,0.00
2013-4-27,60,46,32,40,34,29,96,67,31,30.42,30.28,6,2,9,0.00
2013-4-28,71,52,34,43,36,30,89,59,33,30.31,30.17,14,3,24,0.00
2013-4-29,70,56,42,47,41,37,85,60,34,30.23,30.13,10,2,21,0.00
2013-4-30,75,60,49,51,44,37,84,59,36,30.31,30.22,11,2,18,0.00
2013-5-1,79,60,41,47,40,35,83,52,30,30.45,30.32,10,3,18,0.00
2013-5-2,78,59,44,49,43,38,83,59,32,30.45,30.35,5,2,13,0.00
2013-5-3,72,54,36,49,41,32,88,65,39,30.51,30.34,9,2,13,0.00
2013-5-4,73,57,42,49,41,35,97,61,27,30.37,30.21,10,3,16,0.00
2013-5-5,76,56,38,47,41,36,93,60,30,30.29,30.15,12,3,21,0.00
2013-5-6,78,60,41,49,40,31,90,54,23,30.24,30.09,12,3,21,0.00
2013-5-7,81,64,45,53,43,37,88,52,21,30.17,30.06,8,2,18,0.00
2013-5-8,79,63,51,60,55,49,98,76,41,30.20,30.08,10,3,20,0.00
2013-5-9,74,63,56,65,58,56,100,87,55,30.08,29.89,10,1,18,0.14
2013-5-10,73,61,53,62,57,53,100,87,59,29.99,29.87,8,1,17,0.00
2013-5-11,66,60,54,62,59,54,100,95,82,29.87,29.67,13,5,23,0.59
2013-5-12,61,52,40,54,48,32,100,86,66,29.75,29.60,5,1,12,0.02
2013-5-13,50,42,37,36,32,28,87,70,54,30.03,29.75,8,3,21,0.00
2013-5-14,56,43,31,36,32,29,99,70,37,30.07,29.97,5,2,14,0.01
2013-5-15,65,47,31,49,38,27,100,75,37,30.02,29.64,10,3,30,0.15
2013-5-16,72,56,44,53,46,42,100,75,35,29.86,29.62,7,2,19,0.01
2013-5-17,60,50,45,45,42,40,98,77,52,30.22,29.86,7,2,13,0.00
2013-5-18,69,55,40,50,44,39,99,70,38,30.31,30.22,5,1,9,0.00
2013-5-19,69,55,43,55,49,42,100,82,48,30.31,30.15,9,2,21,0.22
2013-5-20,65,57,52,63,56,52,100,98,88,30.15,30.01,10,1,21,0.13
2013-5-21,69,57,51,67,56,51,100,97,88,30.03,29.84,4,1,14,0.41
2013-5-22,76,60,50,71,58,50,100,96,81,29.95,29.84,8,1,12,0.36
2013-5-23,76,64,56,70,62,56,100,93,77,29.87,29.76,12,3,24,0.00
2013-5-24,65,52,43,64,52,43,100,100,95,29.93,29.67,4,1,9,1.02
2013-5-25,43,39,33,43,39,33,100,100,100,29.93,29.81,6,2,19,0.98
2013-5-26,45,38,33,44,38,33,100,99,93,30.06,29.77,4,1,11,0.64
2013-5-27,63,47,32,46,40,32,100,79,43,30.19,30.04,6,2,13,0.01
2013-5-28,72,55,37,51,44,37,100,70,40,30.24,30.14,12,2,20,0.00
2013-5-29,62,55,50,62,54,44,100,97,65,30.16,29.98,5,0,9,0.16
2013-5-30,79,66,54,71,62,54,100,88,65,30.10,29.99,5,2,9,0.00
2013-5-31,84,72,58,73,65,58,100,81,61,30.11,29.95,6,2,13,0.00
2013-6-1,88,75,63,72,67,63,100,79,52,29.98,29.85,7,2,18,0.00
2013-6-2,86,71,63,77,68,63,100,90,62,29.88,29.68,9,2,17,0.34
2013-6-3,76,64,51,64,59,48,100,84,60,29.85,29.77,5,2,16,0.01
2013-6-4,60,51,46,48,46,42,93,82,62,30.11,29.85,4,2,11,0.00
2013-6-5,68,54,40,50,45,40,100,73,40,30.20,30.10,6,2,10,0.00
2013-6-6,72,58,48,56,50,45,96,75,47,30.21,30.10,6,1,13,0.02
2013-6-7,56,52,48,56,52,48,100,99,92,30.11,29.91,2,0,7,0.45
2013-6-8,61,56,50,61,56,50,100,99,93,30.04,29.76,3,0,8,0.31
2013-6-9,70,60,53,62,57,52,100,90,68,30.21,30.04,4,2,13,0.01
2013-6-10,73,60,49,63,56,49,100,87,58,30.24,30.01,6,2,10,0.00
2013-6-11,62,56,53,60,56,53,100,99,92,30.01,29.62,3,1,7,0.76
2013-6-12,59,55,52,57,54,52,100,98,90,29.87,29.61,6,2,15,0.05
2013-6-13,67,56,46,60,54,46,100,92,66,29.85,29.72,7,1,12,0.07
2013-6-14,74,61,50,61,54,50,100,82,47,29.84,29.71,5,1,12,0.00
2013-6-15,71,58,44,54,49,44,100,73,46,29.97,29.84,6,2,11,0.00
2013-6-16,72,59,48,62,55,46,100,87,61,29.95,29.74,7,2,15,0.31
2013-6-17,74,61,52,66,60,52,100,95,77,29.93,29.80,5,1,11,0.15
2013-6-18,67,58,48,57,54,47,100,89,62,30.01,29.92,5,1,8,0.01
2013-6-19,69,55,44,54,48,44,100,80,49,30.19,29.98,5,2,10,0.00
2013-6-20,73,58,43,60,50,43,100,77,48,30.27,30.19,5,2,22,0.00
2013-6-21,79,63,49,62,54,47,98,77,48,30.26,30.21,4,2,11,0.00
2013-6-22,78,65,56,71,62,54,100,92,74,30.24,30.14,5,0,7,0.24
2013-6-23,82,68,61,76,67,61,100,97,78,30.15,30.01,8,1,19,0.80
2013-6-24,85,71,62,76,68,62,100,93,70,30.01,29.91,7,1,13,0.03
2013-6-25,84,69,60,76,68,60,100,95,70,29.95,29.78,8,1,17,0.32
2013-6-26,72,66,62,71,66,62,100,100,96,29.86,29.78,6,1,10,0.06
2013-6-27,81,70,61,75,67,61,100,93,72,29.85,29.77,7,2,14,0.00
2013-6-28,74,66,60,69,65,60,100,96,84,29.77,29.50,13,4,22,0.18
2013-6-29,77,68,63,71,67,63,100,95,75,29.71,29.53,9,2,19,0.58
2013-6-30,81,71,61,74,67,61,100,89,65,29.95,29.71,10,2,17,0.13
2013-7-1,74,68,63,72,68,63,100,99,90,30.08,29.94,3,0,6,0.46
2013-7-2,71,66,62,70,66,62,100,100,93,30.18,30.06,4,0,6,0.87
2013-7-3,83,71,61,78,70,61,100,96,77,30.18,30.12,6,1,14,0.11
2013-7-4,87,74,65,79,72,65,100,95,73,30.21,30.09,7,1,10,0.01
2013-7-5,86,74,65,78,72,65,100,93,74,30.16,30.04,4,1,12,0.01
2013-7-6,81,72,65,76,70,65,100,94,68,30.08,30.01,6,1,10,0.00
2013-7-7,81,72,62,75,68,62,100,90,75,30.05,29.94,5,1,8,0.00
2013-7-8,78,70,66,76,70,66,100,99,92,30.06,29.95,5,0,8,0.81
2013-7-9,81,72,66,76,70,66,100,94,75,30.10,30.02,10,2,19,0.01
2013-7-10,76,69,65,72,68,65,100,97,84,30.04,29.78,14,6,25,0.38
2013-7-11,76,68,58,72,67,58,100,97,81,30.01,29.75,6,1,11,0.43
2013-7-12,80,66,55,69,61,55,100,85,53,30.20,30.01,8,2,11,0.00
2013-7-13,80,69,58,74,66,58,100,90,72,30.30,30.20,5,1,7,0.00
2013-7-14,84,72,63,76,70,63,100,92,75,30.31,30.21,4,1,6,0.00
2013-7-15,87,74,64,77,70,64,100,87,61,30.23,30.13,5,1,8,0.00
2013-7-16,85,74,64,76,70,64,100,89,63,30.21,30.15,4,2,9,0.00
2013-7-17,89,75,63,78,71,63,100,88,59,30.19,29.97,7,2,21,1.58
2013-7-18,86,74,66,78,72,66,100,93,72,30.05,29.95,7,1,13,0.79
2013-7-19,88,77,67,80,73,67,100,90,73,29.95,29.67,8,3,23,0.04
2013-7-20,80,72,63,75,69,62,100,91,77,29.81,29.65,6,2,18,0.02
2013-7-21,77,66,58,66,62,57,100,85,60,30.02,29.81,4,1,6,0.00
2013-7-22,75,64,54,69,62,54,100,93,81,30.03,29.88,9,2,15,0.00
2013-7-23,71,66,63,71,66,63,100,100,96,29.88,29.57,5,1,8,0.89
2013-7-24,69,61,53,69,60,50,100,94,78,30.02,29.59,4,1,12,0.02
2013-7-25,72,60,48,64,56,47,100,88,66,30.10,30.01,3,1,8,0.00
2013-7-26,71,63,56,67,62,56,100,94,81,30.08,29.97,3,1,8,0.00
2013-7-27,81,68,56,68,62,56,100,85,56,30.04,29.97,7,2,9,0.00
2013-7-28,80,69,58,71,65,58,100,88,61,30.00,29.93,7,2,16,0.00
2013-7-29,78,69,60,72,66,60,100,92,65,30.05,29.95,8,2,18,0.18
2013-7-30,74,64,58,63,60,57,100,87,59,30.09,30.03,4,1,10,0.00
2013-7-31,78,65,54,65,59,54,100,83,53,30.13,30.01,7,2,9,0.00
2013-8-1,79,65,55,66,61,55,100,90,55,30.02,29.82,11,2,20,0.25
2013-8-2,77,67,58,69,63,58,100,88,56,29.83,29.75,5,2,14,0.14
2013-8-3,72,62,55,64,59,55,100,92,74,29.83,29.75,5,1,18,0.06
2013-8-4,71,60,54,65,58,54,100,95,80,29.88,29.79,4,1,8,0.13
2013-8-5,68,58,50,56,52,45,100,82,48,30.03,29.88,5,2,13,0.00
2013-8-6,75,60,46,62,54,46,100,84,60,30.12,30.02,7,2,11,0.00
2013-8-7,77,64,51,64,58,51,100,81,57,30.14,30.04,10,3,16,0.00
2013-8-8,79,70,62,73,67,59,100,91,79,30.04,29.96,11,4,19,0.00
2013-8-9,71,68,63,71,68,63,100,100,100,29.97,29.74,8,2,16,1.36
2013-8-10,72,64,53,64,59,52,100,85,59,30.00,29.77,6,2,10,0.01
2013-8-11,75,60,49,61,56,49,100,86,57,30.06,29.98,4,2,10,0.00
2013-8-12,76,64,53,65,59,53,100,86,57,30.00,29.89,4,1,9,0.00
2013-8-13,67,61,55,66,61,55,100,100,95,29.90,29.67,6,1,11,0.28
2013-8-14,67,59,52,61,58,52,100,97,79,29.91,29.65,5,1,10,0.14
2013-8-15,69,58,47,59,54,47,100,88,64,30.06,29.91,6,2,13,0.00
2013-8-16,74,61,49,63,56,49,100,87,56,30.19,30.06,6,2,9,0.08
2013-8-17,74,61,51,64,57,51,100,88,58,30.27,30.18,8,2,12,0.00
2013-8-18,73,61,50,66,58,50,100,90,63,30.25,30.05,6,1,8,0.00
2013-8-19,78,65,53,68,61,53,100,89,67,30.06,29.94,5,2,8,0.00
2013-8-20,80,67,57,69,63,57,100,88,60,30.07,29.98,4,1,11,0.00
2013-8-21,83,70,58,73,65,58,100,87,66,30.12,29.98,6,2,9,0.00
2013-8-22,83,71,60,72,67,60,100,88,63,29.99,29.78,4,1,10,0.04
2013-8-23,72,63,51,66,58,50,100,86,55,30.16,29.83,5,1,13,0.00
2013-8-24,75,58,45,60,52,45,100,83,53,30.32,30.16,5,2,8,0.00
2013-8-25,75,61,47,62,54,47,100,82,55,30.34,30.11,7,2,11,0.00
2013-8-26,69,64,60,68,64,58,100,99,91,30.13,29.87,7,1,19,0.11
2013-8-27,82,70,62,72,67,62,100,92,67,29.91,29.83,4,1,6,0.00
2013-8-28,84,69,60,74,66,60,100,92,64,29.95,29.83,8,1,14,1.47
2013-8-29,74,65,58,71,64,58,100,98,84,30.05,29.95,7,1,9,0.37
2013-8-30,79,68,60,74,66,60,100,96,76,29.99,29.75,7,1,11,0.07
2013-8-31,77,69,66,72,68,66,100,98,81,29.80,29.75,6,1,12,0.16
2013-9-1,80,71,65,74,69,65,100,93,69,29.86,29.76,5,1,11,0.69
2013-9-2,75,69,64,73,68,64,100,99,89,29.83,29.68,8,1,15,0.95
2013-9-3,70,64,58,68,63,58,100,97,88,29.77,29.68,8,1,15,0.03
2013-9-4,73,62,57,62,59,57,100,92,68,29.89,29.76,5,1,10,0.23
2013-9-5,63,54,43,57,50,42,100,86,52,30.10,29.85,6,2,11,0.15
2013-9-6,64,51,38,52,45,38,100,83,53,30.19,30.01,7,2,10,0.00
2013-9-7,72,57,45,60,52,45,100,86,49,30.01,29.79,11,2,18,0.01
2013-9-8,58,53,42,55,50,41,100,91,63,30.02,29.71,5,2,12,0.22
2013-9-9,66,51,38,53,46,38,100,84,51,30.14,30.02,5,1,12,0.00
2013-9-10,64,56,48,64,56,48,100,100,94,30.06,29.98,3,0,4,0.14
2013-9-11,87,72,61,78,69,61,100,92,70,30.01,29.88,9,3,22,0.60
2013-9-12,77,67,62,74,67,62,100,99,88,29.97,29.63,8,1,13,2.60
2013-9-13,62,58,52,62,58,52,100,100,100,29.77,29.58,3,0,11,0.63
2013-9-14,54,52,47,54,52,47,100,100,96,30.02,29.76,3,0,5,0.03
2013-9-15,65,52,39,57,49,39,100,91,68,30.08,29.95,5,2,10,0.00
2013-9-16,54,49,40,54,48,37,100,94,77,30.23,29.94,4,2,11,0.17
2013-9-17,62,46,34,50,42,34,100,87,59,30.38,30.23,5,1,8,0.01
2013-9-18,67,51,38,55,47,38,100,86,53,30.26,30.08,6,1,9,0.00
2013-9-19,74,56,43,59,50,43,100,85,43,30.10,30.00,5,1,8,0.00
2013-9-20,76,60,47,64,55,47,100,84,52,30.07,29.93,9,3,19,0.00
2013-9-21,70,62,52,63,57,52,100,85,60,29.93,29.61,12,6,28,0.00
2013-9-22,64,56,46,63,55,45,100,96,89,29.80,29.52,9,2,23,0.58
2013-9-23,47,44,41,45,42,39,99,93,85,29.96,29.79,5,1,10,0.00
2013-9-24,55,47,42,47,44,40,100,89,68,29.94,29.83,3,1,11,0.00
2013-9-25,54,49,44,50,48,44,100,95,84,29.97,29.85,3,0,5,0.00
2013-9-26,60,51,43,52,49,43,100,91,72,30.12,29.97,4,1,10,0.00
2013-9-27,67,56,49,58,53,49,100,90,63,30.25,30.11,5,1,7,0.00
2013-9-28,71,56,43,60,52,43,100,87,58,30.31,30.21,8,2,11,0.00
2013-9-29,72,56,44,60,52,44,100,88,62,30.21,30.03,8,1,13,0.00
2013-9-30,71,54,43,59,51,43,100,89,61,30.06,29.93,5,1,8,0.00
2013-10-1,73,56,42,61,52,42,100,90,61,29.97,29.84,5,1,8,0.00
2013-10-2,71,58,48,65,55,48,100,90,74,29.92,29.79,6,1,11,0.00
2013-10-3,70,57,48,56,51,47,100,82,52,30.06,29.92,6,3,8,0.00
2013-10-4,66,53,44,58,51,44,100,91,65,30.07,30.01,4,1,6,0.00
2013-10-5,60,54,47,55,52,45,100,92,78,30.11,30.04,5,1,7,0.00
2013-10-6,55,50,46,50,47,43,100,90,74,30.15,30.05,7,1,16,0.19
2013-10-7,68,59,48,66,58,48,100,98,90,30.05,29.62,15,5,36,0.57
2013-10-8,58,48,39,50,43,37,99,83,58,30.33,29.85,5,2,13,0.00
2013-10-9,63,45,32,47,40,32,100,85,52,30.41,30.30,6,2,9,0.00
2013-10-10,65,48,37,50,43,37,100,85,51,30.30,30.15,4,1,7,0.00
2013-10-11,69,52,40,53,46,40,100,81,44,30.15,30.10,5,2,7,0.00
2013-10-12,70,53,42,60,50,42,100,90,64,30.33,30.15,5,1,8,0.00
2013-10-13,62,51,42,55,50,42,100,94,76,30.38,30.29,8,1,12,0.00
2013-10-14,56,48,39,54,48,39,100,98,90,30.31,30.19,4,0,7,0.14
2013-10-15,63,54,46,60,53,46,100,95,84,30.23,30.10,12,3,20,0.00
2013-10-16,65,55,48,56,51,48,100,89,66,30.10,29.81,10,3,20,0.00
2013-10-17,65,54,48,59,52,48,100,91,67,29.82,29.67,5,1,8,0.04
2013-10-18,58,51,45,54,49,39,100,92,77,29.83,29.54,6,2,10,0.58
2013-10-19,62,50,38,50,43,38,100,78,53,29.87,29.65,7,3,16,0.00
2013-10-20,57,48,41,48,42,35,100,79,55,29.92,29.59,9,3,16,0.09
2013-10-21,60,48,34,47,41,34,100,78,60,30.01,29.85,8,3,16,0.00
2013-10-22,53,48,35,48,43,34,100,86,67,29.85,29.64,12,5,18,0.15
2013-10-23,50,39,33,42,35,32,100,86,60,29.72,29.55,6,2,12,0.00
2013-10-24,43,37,31,37,33,27,98,85,65,29.78,29.58,7,2,21,0.00
2013-10-25,41,36,34,35,32,28,100,86,69,30.04,29.78,4,1,11,0.01
2013-10-26,41,36,28,35,31,26,95,81,63,30.04,29.75,8,2,18,0.00
2013-10-27,45,40,35,39,34,30,92,79,73,29.94,29.68,8,2,18,0.01
2013-10-28,44,36,27,40,31,23,96,82,67,30.27,29.92,8,2,25,0.01
2013-10-29,43,30,21,29,23,19,96,77,48,30.36,30.25,5,1,7,0.00
2013-10-30,45,33,25,33,28,21,97,82,62,30.25,30.11,6,1,11,0.00
2013-10-31,55,42,32,55,41,31,100,97,86,30.15,29.65,11,2,27,0.35
2013-11-1,62,57,49,61,54,44,100,90,68,29.65,29.27,15,7,43,0.42
2013-11-2,54,47,35,48,44,35,99,89,76,29.78,29.57,5,2,13,0.09
2013-11-3,37,30,23,35,22,17,99,74,49,30.36,29.77,7,2,13,0.00
2013-11-4,38,27,19,22,19,16,89,73,43,30.58,30.36,4,0,9,0.00
2013-11-5,48,32,22,31,26,19,91,77,50,30.58,30.38,7,2,15,0.00
2013-11-6,55,43,30,46,38,29,98,83,60,30.38,29.85,8,2,16,0.00
2013-11-7,54,46,33,52,44,28,100,92,82,29.85,29.65,9,3,25,0.35
2013-11-8,36,32,29,32,28,25,91,85,79,29.97,29.75,3,1,11,0.00
2013-11-9,37,32,30,29,26,23,87,77,61,30.07,29.90,6,1,9,0.01
2013-11-10,39,35,31,39,34,28,100,98,85,29.90,29.63,7,1,13,0.12
2013-11-11,39,34,30,34,31,28,99,86,72,29.99,29.75,10,3,23,0.01
2013-11-12,37,24,22,35,21,17,98,86,77,30.10,29.75,7,1,17,0.00
2013-11-13,30,23,16,20,15,12,88,73,54,30.17,29.95,9,2,18,0.10
2013-11-14,42,33,26,32,26,20,89,77,68,29.99,29.91,7,2,15,0.00
2013-11-15,49,36,26,33,27,24,93,73,44,30.12,29.99,7,1,21,0.00
2013-11-16,55,40,33,36,31,27,90,70,40,30.22,30.11,8,2,13,0.00
2013-11-17,55,43,30,54,41,28,100,92,80,30.22,29.73,19,7,43,0.01
2013-11-18,57,50,38,56,45,32,100,84,63,29.73,29.38,15,5,29,0.03
2013-11-19,39,29,25,33,22,19,87,75,66,30.21,29.55,8,2,19,0.00
2013-11-20,36,26,20,18,16,14,81,67,42,30.54,30.21,5,1,10,0.00
2013-11-21,40,28,17,24,19,13,88,70,44,30.54,30.26,4,0,5,0.00
2013-11-22,33,31,28,33,29,21,100,93,72,30.26,29.71,2,0,5,0.07
2013-11-23,35,28,18,35,24,13,100,86,65,29.84,29.63,5,2,15,0.03
2013-11-24,18,13,9,13,7,1,87,75,65,30.06,29.69,4,2,28,0.00
2013-11-25,25,16,6,16,6,0,77,66,39,30.23,30.06,4,1,10,0.05
2013-11-26,29,26,22,29,23,15,100,87,71,30.16,29.95,7,2,18,0.00
2013-11-27,50,37,29,50,37,29,100,100,99,29.94,29.27,18,1,34,1.00
2013-11-28,29,19,11,29,15,8,100,86,66,30.28,29.37,4,1,11,0.06
2013-11-29,25,14,7,13,8,4,90,80,56,30.61,30.28,5,1,7,0.06
2013-11-30,27,16,3,19,9,-1,87,75,50,30.65,30.23,10,2,25,0.02
2013-12-1,34,29,23,31,26,16,100,90,72,30.23,29.96,5,0,13,0.00
2013-12-2,35,30,26,34,30,26,100,99,94,29.96,29.84,2,0,3,0.02
2013-12-3,33,32,30,33,32,30,100,100,98,29.89,29.83,2,0,6,0.00
2013-12-4,36,29,24,30,26,23,99,90,75,30.16,29.89,4,1,8,0.00
2013-12-5,43,34,24,43,34,23,100,98,90,30.16,29.82,13,3,26,0.05
2013-12-6,42,36,30,42,35,27,100,97,86,30.09,29.86,3,0,6,0.39
2013-12-7,30,25,18,28,18,12,93,76,59,30.37,30.06,4,1,17,0.00
2013-12-8,24,19,15,16,12,9,83,71,55,30.50,30.37,5,1,8,0.00
2013-12-9,34,26,19,30,23,14,100,88,79,30.40,29.81,20,3,35,0.00
2013-12-10,30,26,18,30,22,12,99,83,70,29.86,29.72,6,1,12,0.00
2013-12-11,23,18,11,19,14,7,94,82,72,30.07,29.86,9,3,25,0.00
2013-12-12,18,10,2,7,2,-3,85,72,54,30.19,29.89,9,2,20,0.06
2013-12-13,16,9,-2,10,3,-8,88,74,60,30.30,29.80,8,2,16,0.00
2013-12-14,12,2,-6,10,-6,-12,91,70,47,30.49,30.11,5,1,14,0.00
2013-12-15,23,20,12,20,18,10,100,91,84,30.11,29.46,11,2,25,0.00
2013-12-16,20,9,-7,14,3,-13,93,77,55,30.15,29.63,7,1,13,0.18
2013-12-17,10,0,-13,5,-6,-18,87,76,51,30.17,29.96,6,0,7,0.01
2013-12-18,31,18,8,20,13,5,94,83,63,29.96,29.86,5,0,10,0.15
2013-12-19,31,27,21,28,24,19,95,87,77,30.04,29.87,6,2,16,0.00
2013-12-20,36,32,29,34,31,28,100,96,86,30.06,29.86,10,1,22,0.10
2013-12-21,48,40,33,48,40,33,100,100,99,29.88,29.78,10,1,20,0.22
2013-12-22,38,35,32,38,35,32,100,100,100,29.96,29.66,4,0,8,0.50
2013-12-23,34,32,29,34,32,28,100,100,95,30.09,29.94,2,0,7,0.27
2013-12-24,29,20,7,28,15,0,96,81,63,30.19,30.03,4,1,8,0.00
2013-12-25,16,8,1,7,1,-6,86,72,55,30.43,30.19,3,0,9,0.00
2013-12-26,27,20,10,25,17,4,98,88,63,30.35,30.03,13,4,22,0.00
2013-12-27,33,24,20,26,21,18,98,88,69,30.15,30.08,5,1,12,0.10
2013-12-28,34,29,20,32,26,17,94,90,86,30.10,29.93,6,2,14,0.00
2013-12-29,36,32,27,35,31,27,100,97,90,29.98,29.56,6,0,15,0.34
2013-12-30,32,19,0,32,16,-4,100,87,71,30.14,29.55,2,0,9,0.18
2013-12-31,13,6,0,8,1,-5,91,81,67,30.12,29.94,1,0,5,0.00
2014-1-1,17,9,1,10,4,-5,92,82,71,30.33,30.03,2,0,8,0.01
2014-1-2,4,1,-3,0,-4,-8,86,80,73,30.32,29.87,2,0,5,0.00